Weather History for KTBR - March, 2013

Change the Weather History Date:

Friday, March 8, 2013

  Actual Average (KSAV) Record (KSAV)
Temperature  
Mean Temperature 48 °F 58 °F  
Max Temperature 62 °F 69 °F 86 °F (1951)
Min Temperature 33 °F 46 °F 24 °F (1899)
Degree Days  
Heating Degree Days 18 8  
Month to date heating degree days 71  
Since 1 July heating degree days 1588  
Cooling Degree Days 0 1  
Month to date cooling degree days 8  
Year to date cooling degree days 18  
Moisture  
Dew Point 33 °F    
Average Humidity 64    
Maximum Humidity 100    
Minimum Humidity 30    
Precipitation  
Precipitation 0.00 in 0.12 in 1.50 in (1973)
Month to date precipitation 0.95  
Year to date precipitation 7.43  
Sea Level Pressure  
Sea Level Pressure 30.24 in    
Wind  
Wind Speed 2 mph (NNE)    
Max Wind Speed 9 mph    
Max Gust Speed -    
Visibility 9 miles    
Events      
T = Trace of Precipitation, MM = Missing Value Source: NWS Daily Summary

Daily Weather History Graph

Daily Weather History Graph

Search for Another Location

Airport or City:

Trip Planner

Search our weather history database for the weather conditions in past years. The results will help you decide how hot, cold, wet, or windy it might be!

Date:

Astronomy

Mar. 08, 2013 Rise Set
Actual Time 6:45 AM EST 6:29 PM EST
Civil Twilight 6:21 AM EST 6:54 PM EST
Nautical Twilight 5:52 AM EST 7:22 PM EST
Astronomical Twilight 5:24 AM EST 7:51 PM EST
Moon 4:19 AM EST (3/8) 3:31 PM EST (3/8)
Length of Visible Light 12h 33m
Length of Day
11h 44m
Waning Crescent, 12% of the Moon is Illuminated
Mar 8
Waning Crescent
Mar 11
New
Mar 19
First Quarter
Mar 27
Full
Apr 3
Last Quarter

Hourly Weather History & Observations

Time (EST) Temp. Windchill Dew Point Humidity Pressure Visibility Wind Dir Wind Speed Gust Speed Precip Events Conditions
12:15 AM 37.4 °F - 37.4 °F 100% 30.19 in 7.0 mi Calm Calm - N/A   Clear
12:35 AM 37.4 °F - 37.4 °F 100% 30.19 in 5.0 mi Calm Calm - N/A   Clear
12:55 AM 37.4 °F - 37.4 °F 100% 30.19 in 7.0 mi Calm Calm - N/A   Clear
1:15 AM 35.6 °F - 35.6 °F 100% 30.20 in 4.0 mi Calm Calm - N/A   Clear
1:35 AM 35.6 °F - 35.6 °F 100% 30.20 in 5.0 mi Calm Calm - N/A   Clear
1:55 AM 35.6 °F - 35.6 °F 100% 30.21 in 3.0 mi Calm Calm - N/A   Clear
2:15 AM 35.6 °F - 35.6 °F 100% 30.20 in 4.0 mi Calm Calm - N/A   Clear
2:35 AM 35.6 °F - 35.6 °F 100% 30.20 in 5.0 mi Calm Calm - N/A   Clear
2:55 AM 33.8 °F - 33.8 °F 100% 30.20 in 5.0 mi Calm Calm - N/A   Clear
3:15 AM 33.8 °F - 33.8 °F 100% 30.19 in 5.0 mi Calm Calm - N/A   Clear
3:35 AM 35.6 °F 32.8 °F 35.6 °F 100% 30.21 in 10.0 mi NNE 3.5 mph - N/A   Clear
3:55 AM 41.0 °F 37.1 °F 33.8 °F 76% 30.21 in 10.0 mi ENE 5.8 mph - N/A   Clear
4:15 AM 41.0 °F 38.0 °F 33.8 °F 76% 30.22 in 10.0 mi NNE 4.6 mph - N/A   Clear
4:35 AM 41.0 °F 38.0 °F 33.8 °F 76% 30.23 in 10.0 mi NE 4.6 mph - N/A   Clear
4:55 AM 41.0 °F 39.0 °F 32.0 °F 70% 30.23 in 10.0 mi ENE 3.5 mph - N/A   Clear
5:15 AM 39.2 °F - 32.0 °F 75% 30.24 in 10.0 mi Calm Calm - N/A   Clear
5:35 AM 39.2 °F - 32.0 °F 75% 30.24 in 10.0 mi Calm Calm - N/A   Clear
5:55 AM 37.4 °F - 32.0 °F 81% 30.25 in 10.0 mi Calm Calm - N/A   Clear
6:15 AM 37.4 °F 34.9 °F 32.0 °F 81% 30.25 in 10.0 mi ENE 3.5 mph - N/A   Clear
6:35 AM 37.4 °F - 32.0 °F 81% 30.26 in 10.0 mi Calm Calm - N/A   Clear
6:55 AM 37.4 °F - 32.0 °F 81% 30.26 in 10.0 mi Calm Calm - N/A   Clear
7:15 AM 37.4 °F - 32.0 °F 81% 30.27 in 10.0 mi Calm Calm - N/A   Clear
7:35 AM 37.4 °F 32.8 °F 32.0 °F 81% 30.28 in 10.0 mi ENE 5.8 mph - N/A   Clear
7:55 AM 41.0 °F 36.4 °F 32.0 °F 70% 30.28 in 10.0 mi NE 6.9 mph - N/A   Clear
8:15 AM 41.0 °F 37.1 °F 30.2 °F 65% 30.29 in 10.0 mi ENE 5.8 mph - N/A   Clear
8:35 AM 42.8 °F 38.6 °F 30.2 °F 61% 30.29 in 10.0 mi ENE 6.9 mph - N/A   Clear
8:55 AM 44.6 °F 42.2 °F 30.2 °F 57% 30.29 in 10.0 mi ENE 4.6 mph - N/A   Clear
9:15 AM 46.4 °F 42.9 °F 30.2 °F 53% 30.29 in 10.0 mi NE 6.9 mph - N/A   Clear
9:55 AM 48.2 °F - 30.2 °F 50% 30.29 in 10.0 mi East 9.2 mph - N/A   Clear
10:15 AM 50.0 °F - 30.2 °F 47% 30.29 in 10.0 mi ENE 4.6 mph - N/A   Clear
10:35 AM 50.0 °F - 30.2 °F 47% 30.29 in 10.0 mi NNE 5.8 mph - N/A   Clear
10:55 AM 51.8 °F - 30.2 °F 44% 30.29 in 10.0 mi East 5.8 mph - N/A   Scattered Clouds
11:15 AM 51.8 °F - 30.2 °F 44% 30.28 in 10.0 mi NNE 3.5 mph - N/A   Clear
11:35 AM 53.6 °F - 32.0 °F 44% 30.29 in 10.0 mi NNE 6.9 mph - N/A   Clear
11:55 AM 55.4 °F - 32.0 °F 41% 30.29 in 10.0 mi NNW 8.1 mph - N/A   Clear
12:15 PM 55.4 °F - 32.0 °F 41% 30.29 in 10.0 mi SW 3.5 mph - N/A   Clear
12:35 PM 57.2 °F - 32.0 °F 38% 30.28 in 10.0 mi Calm Calm - N/A   Clear
12:55 PM 59.0 °F - 32.0 °F 36% 30.28 in 10.0 mi Calm Calm - N/A   Clear
1:15 PM 59.0 °F - 32.0 °F 36% 30.28 in 10.0 mi WNW 8.1 mph - N/A   Clear
1:35 PM 59.0 °F - 32.0 °F 36% 30.26 in 10.0 mi Calm Calm - N/A   Clear
1:55 PM 59.0 °F - 32.0 °F 36% 30.24 in 10.0 mi NW 8.1 mph - N/A   Clear
2:15 PM 60.8 °F - 32.0 °F 34% 30.23 in 10.0 mi WNW 8.1 mph - N/A   Clear
2:35 PM 62.6 °F - 32.0 °F 32% 30.22 in 10.0 mi NNW 6.9 mph - N/A   Clear
2:55 PM 62.6 °F - 32.0 °F 32% 30.21 in 10.0 mi North 5.8 mph - N/A   Clear
3:15 PM 62.6 °F - 32.0 °F 32% 30.20 in 10.0 mi NNW 5.8 mph - N/A   Clear
3:35 PM 62.6 °F - 32.0 °F 32% 30.19 in 10.0 mi NNW 8.1 mph - N/A   Clear
3:55 PM 62.6 °F - 32.0 °F 32% 30.19 in 10.0 mi North 9.2 mph - N/A   Clear
4:15 PM 62.6 °F - 32.0 °F 32% 30.19 in 10.0 mi NW 8.1 mph - N/A   Clear
4:35 PM 62.6 °F - 32.0 °F 32% 30.18 in 10.0 mi North 4.6 mph - N/A   Clear
4:55 PM 62.6 °F - 32.0 °F 32% 30.19 in 10.0 mi North 8.1 mph - N/A   Clear
5:15 PM 62.6 °F - 30.2 °F 30% 30.19 in 10.0 mi NW 5.8 mph - N/A   Clear
5:35 PM 62.6 °F - 32.0 °F 32% 30.19 in 10.0 mi NNW 6.9 mph - N/A   Clear
5:55 PM 60.8 °F - 32.0 °F 34% 30.20 in 10.0 mi NNW 4.6 mph - N/A   Clear
6:15 PM 59.0 °F - 32.0 °F 36% 30.21 in 10.0 mi NNW 4.6 mph - N/A   Clear
6:35 PM 53.6 °F - 32.0 °F 44% 30.21 in 10.0 mi Calm Calm - N/A   Clear
6:55 PM 51.8 °F - 33.8 °F 50% 30.22 in 10.0 mi Calm Calm - N/A   Clear
7:55 PM 46.4 °F - 33.8 °F 62% 30.24 in 10.0 mi Calm Calm - N/A   Clear
8:15 PM 44.6 °F - 35.6 °F 71% 30.25 in 10.0 mi Calm Calm - N/A   Clear
8:35 PM 42.8 °F - 35.6 °F 76% 30.25 in 10.0 mi Calm Calm - N/A   Clear
8:55 PM 42.8 °F - 35.6 °F 76% 30.25 in 10.0 mi Calm Calm - N/A   Clear
9:15 PM 42.8 °F - 35.6 °F 76% 30.26 in 7.0 mi Calm Calm - N/A   Clear
9:35 PM 41.0 °F - 35.6 °F 81% 30.26 in 10.0 mi Calm Calm - N/A   Clear
9:55 PM 41.0 °F - 35.6 °F 81% 30.26 in 10.0 mi Calm Calm - N/A   Clear
10:15 PM 41.0 °F - 35.6 °F 81% 30.26 in 7.0 mi Calm Calm - N/A   Clear
10:55 PM 39.2 °F - 33.8 °F 81% 30.26 in 10.0 mi Calm Calm - N/A   Clear
11:15 PM 37.4 °F - 33.8 °F 87% 30.26 in 10.0 mi Calm Calm - N/A   Clear
11:35 PM 37.4 °F - 35.6 °F 93% 30.26 in 5.0 mi Calm Calm - N/A   Clear
11:55 PM 35.6 °F - 33.8 °F 93% 30.27 in 7.0 mi Calm Calm - N/A   Clear